Flag for U.S.A. Weather past 2 weeks in Petersburg, Indiana, U.S.A.

Now
73 °F

Broken clouds.


Feels Like: 75 °F
Forecast: 68 / 75 °F
Wind: 15 mph from South

Location: Huntingburg Airport

Current Time: May 25, 2015 at 6:28:55 PM

Latest Report: May 25, 2015 at 5:35 PM


Visibility: 10 mi

Pressure: 30.09 "Hg

Humidity: 74%

Dew point: 64 °F

Location of PetersburgLocation

Historic Weather in Petersburg — Graph

°F

Petersburg temperature yesterday

Maximum temperature yesterday: 82 °F (at 2:15 PM)
Minimum temperature yesterday: 63 °F (at 12:55 AM)
Average temperature yesterday: 73 °F

Past Weeks' High & Low Weather Summary

 TemperatureHumidityPressure
High86 °F (May 10, 4:55 PM)93% (May 13, 6:55 AM)30.41 "Hg (May 13, 6:55 AM)
Low43 °F (May 22, 4:35 AM)32% (May 23, 3:55 PM)29.94 "Hg (May 11, 11:35 AM)
Average65 °F69%30.15 "Hg
* Reported May 10 4:15 PM — May 25 4:35 PM, Petersburg, Weather by CustomWeather, © 2015

Note: Actual official high and low records may vary slightly from our data, if they occured in-between our weather recording intervals... More about our weather records

Advertising

Petersburg weather history for previous 24 hours

 ConditionsComfort  
Time TempWeatherWind HumidityBarometerVisibility
4:35 PM
Mon, May 25
73 °FPartly sunny.13 mph74%30.10 "Hg10 mi
4:15 PM73 °FPartly sunny.14 mph74%30.10 "Hg10 mi
3:55 PM73 °FPartly sunny.15 mph74%30.10 "Hg10 mi
3:35 PM73 °FMore clouds than sun.15 mph74%30.10 "Hg10 mi
3:15 PM73 °FBroken clouds.16 mph74%30.11 "Hg10 mi
2:55 PM73 °FMore clouds than sun.13 mph74%30.11 "Hg10 mi
2:35 PM73 °FBroken clouds.17 mph74%30.11 "Hg10 mi
2:15 PM75 °FBroken clouds.13 mph74%30.12 "Hg10 mi
1:55 PM73 °FCloudy.16 mph78%30.12 "Hg10 mi
1:35 PM75 °FMostly cloudy.16 mph74%30.12 "Hg10 mi
1:15 PM73 °FBroken clouds.15 mph74%30.13 "Hg10 mi
12:55 PM73 °FCloudy.13 mph74%30.13 "Hg10 mi
12:35 PM72 °FMostly cloudy.13 mph78%30.13 "Hg10 mi
12:15 PM72 °FMostly cloudy.14 mph78%30.13 "Hg10 mi
11:55 AM72 °FCloudy.15 mph78%30.12 "Hg10 mi
11:35 AM72 °FMostly cloudy.14 mph78%30.12 "Hg10 mi
11:15 AM70 °FCloudy.14 mph83%30.11 "Hg10 mi
10:55 AM70 °FCloudy.14 mph83%30.11 "Hg10 mi
10:35 AM70 °FMostly cloudy.15 mph83%30.11 "Hg10 mi
10:15 AM68 °FMostly cloudy.14 mph88%30.11 "Hg10 mi
9:55 AM68 °FLow clouds.18 mph88%30.11 "Hg10 mi
9:35 AM68 °FMostly cloudy.17 mph83%30.11 "Hg10 mi
9:15 AM68 °FMostly cloudy.16 mph83%30.10 "Hg10 mi
8:55 AM66 °FMostly cloudy.17 mph88%30.10 "Hg7 mi
8:35 AM66 °FCloudy.14 mph88%30.09 "Hg10 mi
8:15 AM66 °FCloudy.13 mph88%30.09 "Hg10 mi
7:55 AM66 °FMostly cloudy.9 mph88%30.09 "Hg10 mi
7:35 AM66 °FMore clouds than sun.14 mph88%30.09 "Hg10 mi
7:15 AM66 °FOvercast.13 mph88%30.09 "Hg10 mi
6:55 AM66 °FPartly cloudy.13 mph88%30.09 "Hg10 mi
6:35 AM66 °FMostly cloudy.14 mph88%30.08 "Hg9 mi
6:15 AM68 °FPartly cloudy.16 mph83%30.08 "Hg10 mi
5:55 AM68 °FMostly cloudy.15 mph88%30.07 "Hg10 mi
5:35 AM68 °FPartly cloudy.17 mph88%30.06 "Hg9 mi
5:15 AM68 °FOvercast.10 mph88%30.06 "Hg6 mi
4:55 AM68 °FMostly cloudy.5 mph88%30.06 "Hg9 mi
4:35 AM68 °FOvercast.5 mph88%30.06 "Hg10 mi
4:15 AM68 °FPartly cloudy.6 mph83%30.04 "Hg8 mi
3:55 AM66 °FMostly cloudy.7 mph88%30.06 "Hg8 mi
3:35 AM66 °FPartly cloudy.10 mph88%30.05 "Hg5 mi
3:15 AM68 °FOvercast.18 mph83%30.06 "Hg6 mi
2:55 AM70 °FMostly cloudy.14 mph78%30.05 "Hg10 mi
2:35 AM73 °FMostly cloudy.17 mph69%30.05 "Hg8 mi
2:15 AM73 °FPassing clouds.14 mph65%30.05 "Hg10 mi
1:55 AM73 °FPassing clouds.17 mph69%30.05 "Hg10 mi
1:35 AM75 °FClear.16 mph61%30.05 "Hg10 mi
1:15 AM75 °FPassing clouds.14 mph61%30.05 "Hg10 mi
12:55 AM75 °FPassing clouds.12 mph61%30.05 "Hg10 mi
12:35 AM75 °FPassing clouds.12 mph61%30.06 "Hg10 mi
11:55 PM
Sun, May 24
75 °FPassing clouds.10 mph61%30.06 "Hg10 mi
11:35 PM75 °FClear.13 mph61%30.07 "Hg10 mi
11:15 PM75 °FClear.10 mph61%30.07 "Hg10 mi
10:55 PM77 °FClear.13 mph57%30.07 "Hg10 mi
10:35 PM75 °FPassing clouds.14 mph61%30.06 "Hg10 mi
10:15 PM75 °FPassing clouds.13 mph61%30.06 "Hg10 mi
9:55 PM75 °FPassing clouds.10 mph61%30.05 "Hg10 mi
9:35 PM77 °FScattered clouds.10 mph57%30.05 "Hg10 mi
9:15 PM77 °FPartly sunny.12 mph57%30.05 "Hg10 mi
8:55 PM79 °FScattered clouds.12 mph54%30.05 "Hg10 mi
8:35 PM79 °FSunny.12 mph54%30.05 "Hg10 mi
8:15 PM79 °FSunny.10 mph54%30.05 "Hg10 mi
7:55 PM81 °FPassing clouds.12 mph51%30.05 "Hg10 mi
7:35 PM81 °FScattered clouds.14 mph51%30.05 "Hg10 mi
7:15 PM81 °FScattered clouds.14 mph51%30.05 "Hg10 mi
6:55 PM81 °FPartly sunny.12 mph51%30.05 "Hg10 mi
6:35 PM82 °FPartly sunny.16 mph48%30.05 "Hg10 mi
6:15 PM82 °FScattered clouds.20 mph51%30.06 "Hg10 mi
Weather by CustomWeather, © 2015

See weather overviewHow to use our weather pages